Location: Hemaruka
(51.7801°N, 111.0917°W)
Time: 14:02:31
(UTC+00:00)

TIGRISAT - Visible Passes

Search period start: 01 December 2023 00:00
Search period end: 11 December 2023 00:00
Orbit: 598 x 676 km, 97.7° (Epoch: 30 November)

Date Brightness Start Highest point End Pass type
(mag) Time Alt. Az. Time Alt. Az. Time Alt. Az.
01 Dec ? 00:08:44 10° NNE 00:13:01 40° E 00:17:10 10° SSE visible
01 Dec ? 01:45:27 10° N 01:49:23 30° WNW 01:53:14 10° WSW visible
02 Dec ? 00:31:13 10° NNE 00:35:44 64° E 00:40:07 10° S visible
02 Dec ? 02:08:30 10° NNW 02:11:47 20° WNW 02:15:01 10° WSW visible
03 Dec ? 00:53:50 10° NNE 00:58:22 80° WNW 01:02:45 10° SSW visible
03 Dec ? 02:31:50 10° NNW 02:34:06 14° NW 02:36:20 10° W visible
04 Dec ? 01:16:33 10° N 01:20:54 50° WNW 01:25:09 10° SW visible
05 Dec ? 00:02:47 10° NNE 00:06:55 35° E 00:10:56 10° SSE visible
05 Dec ? 01:39:21 10° N 01:43:22 32° WNW 01:47:15 10° SW visible
06 Dec ? 00:25:11 10° NNE 00:29:37 57° E 00:33:54 10° S visible
06 Dec ? 02:02:19 10° N 02:05:44 22° WNW 02:09:05 10° WSW visible
07 Dec ? 00:47:43 10° NNE 00:52:13 89° WNW 00:56:34 10° SSW visible
07 Dec ? 02:25:32 10° NNW 02:28:01 15° NW 02:30:29 10° W visible
08 Dec ? 01:10:21 10° N 01:14:43 56° WNW 01:18:58 10° SSW visible
08 Dec ? 23:56:40 10° NNE 00:00:38 31° E 00:04:29 10° SSE visible
09 Dec ? 01:33:06 10° N 01:37:10 35° WNW 01:41:07 10° SW visible
10 Dec ? 00:18:59 10° NNE 00:23:18 50° E 00:27:29 10° S visible
10 Dec ? 01:55:59 10° N 01:59:30 24° WNW 02:02:58 10° WSW visible
